Location: Houston
(29.7630°N, 95.3630°W)
Time: 03:59:10
(UTC-05:00)

Daily predictions for brighter satellites

Satellite Brightness Start Highest point End
(mag) Time Altitude Azimuth Time Altitude Azimuth Time Altitude Azimuth
CZ-3 R/B 4.2 03:08:55 10° W 04:12:33 84° S 04:24:58 10° ESE
CZ-4C R/B 4.4 04:14:34 25° NNE 04:17:12 30° NE 04:24:03 10° ESE
USA 267 4.1 04:38:12 10° ESE 04:44:19 44° NE 04:45:25 41° NNE
Cosmos 44 Rocket 4.5 05:03:21 41° E 05:03:21 41° E 05:07:05 10° SE
ADEOS II 4.3 05:05:47 10° N 05:06:30 14° N 05:06:30 14° N
CZ-4B R/B 3.6 05:14:12 10° NNE 05:19:38 61° ESE 05:25:09 10° S
Cosmos 1125 Rocket 4.2 05:16:44 22° S 05:19:57 51° ESE 05:25:03 10° NNE
SJ 16-02 2.5 05:22:18 20° SSE 05:24:52 41° E 05:29:00 10° NNE
CZ-3 Stage 3 2.5 05:27:13 79° WNW 05:27:29 85° N 05:40:06 10° E
Cosmos 1356 Rocket 3.9 05:28:17 57° ESE 05:28:39 60° E 05:32:53 10° NNE
IRS-1C Rocket 4.4 05:24:58 10° NNE 05:30:14 67° ESE 05:35:27 10° S
Cosmos 2181 Rocket 4.2 05:27:39 10° S 05:33:53 72° E 05:40:03 10° N
Cosmos 2341 Rocket 4.3 05:32:10 10° N 05:38:33 70° E 05:44:52 10° SSE
FUSE 4.3 05:44:14 44° SW 05:45:10 49° S 05:50:22 10° ESE
SWIFT 4.3 05:45:30 18° S 05:45:30 18° S 05:48:08 10° SE
Meteor 1-24 Rocket 4.3 05:45:42 10° S 05:51:38 65° E 05:57:33 10° NNE
OAO 2 Rocket 3.7 05:57:15 35° NW 05:59:05 55° N 06:03:57 10° E
APEX 3.5 05:59:16 29° NNW 06:01:22 73° WSW 06:06:34 10° SSE
CZ-4C R/B 3.1 05:59:51 15° NW 06:06:05 54° WSW 06:13:55 10° S
Cosmos 158 Rocket 4.5 06:02:05 10° N 06:07:28 66° ENE 06:12:46 10° SSE
Okean O Rocket 3.1 06:04:45 10° NNW 06:06:42 21° NW 06:06:42 21° NW
Meteor 1-31 Rocket 2.9 06:06:54 10° N 06:10:34 47° WNW 06:14:13 10° SSW
Tiangong 2 2.5 06:10:21 24° NNW 06:11:38 33° NNE 06:14:36 10° E
Cosmos-2242 2.9 06:10:01 10° NNW 06:14:16 63° W 06:18:32 10° S
NOSS 3-1 (C) 4.3 06:14:56 23° WNW 06:16:06 25° NW 06:21:05 10° N
NOSS 2-3 (E) 4.5 06:13:03 10° SSW 06:17:27 55° ESE 06:22:15 10° NE
Cosmos 44 4.2 06:17:06 25° WSW 06:17:32 26° WSW 06:21:35 10° SSW
Feng Yun 1-1 Rocket 4.4 06:13:02 10° NNE 06:18:43 83° ESE 06:24:31 10° SSW
USA 81 4.0 06:14:03 10° SSW 06:19:14 59° W 06:24:26 10° N
GPS 2-04 Rocket1 2.4 06:18:21 30° WNW 06:20:08 88° NNE 06:23:48 10° ESE
CZ-2C R/B 3.7 06:17:12 10° S 06:21:58 77° WSW 06:26:42 10° NNW
NOSS 3-1 (A) 4.0 06:19:26 22° W 06:22:03 32° NW 06:27:33 10° N
Milstar 3 3.1 06:19:02 21° W 06:23:35 65° SSW 06:32:09 10° ESE
Okean-O 2.6 06:19:38 10° NNE 06:24:05 89° ESE 06:28:30 10° SSW
Shenzhou-11 Module 1.9 06:23:53 31° WNW 06:25:07 69° SW 06:28:08 10° SE
USA 267 3.7 06:21:11 10° SSE 06:27:13 40° SW 06:32:47 12° WNW
Cosmos 2219 3.1 06:21:40 10° NNW 06:27:20 84° WSW 06:32:56 10° SSE
Cosmos 2366 rocket 4.1 06:23:09 10° N 06:29:19 83° E 06:35:30 10° S
COSMO-SKYMED 1 3.5 06:25:23 10° SSE 06:29:34 51° ENE 06:33:47 10° N
Cosmos 1356 4.0 06:30:48 10° SSW 06:34:00 35° W 06:37:13 10° NNW
EO 1 Del DPAF 3.3 06:30:44 10° SSE 06:34:32 82° ENE 06:38:22 10° N
Cosmos 1656 4.0 06:30:26 10° S 06:36:04 72° ESE 06:41:45 10° NNE
Cosmos 2297 Rocket 4.1 06:32:40 10° N 06:37:38 31° ENE 06:42:33 10° SE
In-Cosmos 22 4.3 06:34:29 10° SSW 06:39:52 51° W 06:45:24 10° N
Cosmos 1697 Rocket 3.7 06:36:25 10° S 06:41:51 51° ESE 06:47:19 10° NNE
SL-8 Rocket 4.1 06:36:20 10° NNW 06:42:26 54° W 06:48:33 10° SSW
Cosmos 1269 Rocket 4.0 06:39:42 10° NNW 06:45:00 78° WSW 06:50:17 10° S
Cosmos 2221 4.0 06:42:10 10° N 06:46:20 42° E 06:50:29 10° SSE
Meteor 2-1 Rocket 4.3 06:43:32 10° N 06:49:26 82° W 06:55:12 10° S
Cosmos 1842 Rocket 3.5 06:46:18 10° NNW 06:50:37 63° W 06:54:52 10° S
NOSS 2-3 (C) 3.7 06:47:35 10° SW 06:52:04 64° WNW 06:57:04 10° NNE
Cosmos 2084 Rocket 3.8 06:50:08 10° SW 06:54:18 42° WNW 06:58:17 10° NNE
Cosmos 1980 Rocket 4.1 06:50:32 10° SSE 06:55:34 36° ESE 07:00:38 10° NE
Meteor 1-28 Rocket 4.0 06:55:08 10° SSW 06:58:29 30° W 07:01:52 10° NW
Cosmos 2369 3.8 06:55:13 10° SW 07:00:42 53° WNW 07:06:13 10° N
IDEFIX/ARIANE 42P 2.5 06:55:54 10° N 07:01:06 72° WNW 07:06:16 10° SSW
ERBS 2.7 07:00:06 10° NNW 07:03:32 68° NE 07:06:58 10° SE
SJ 16-02 3.1 07:01:46 10° W 07:03:36 12° WNW 07:05:26 10° NW
PAYLOAD A 3.9 06:59:29 10° N 07:04:07 56° WNW 07:08:53 10° SSW
OAO 3 Copernicus 4.3 07:00:53 10° WSW 07:05:55 85° NNW 07:10:58 10° ENE
